#timestamp,LO_Frequency,Hit,StdDev 
1680901215.5,286046993.4,N
1680901235.4,286046995.9,N
1680901255.2,286046998.0,N
1680901275.0,286046995.1,N
1680901276.0,286046995.1,N
1680901295.8,286046998.0,N
1680901315.6,286046999.6,N
1680901335.5,286046997.8,N
1680901355.3,286046995.2,N
1680901375.1,286046997.0,N
1680901395.9,286046996.5,N
1680901415.7,286046999.2,N
1680901435.6,286046997.4,N
1680901455.4,286046995.8,N
1680901475.2,286046997.3,N
1680901495.1,286046999.2,N
1680901496.0,286046999.2,N
1680901515.8,286046996.6,N
1680901535.6,286046999.1,N
1680901555.5,286046997.2,N
1680901575.3,286046997.5,N
1680901595.1,286046997.8,N
1680901615.9,286046996.8,N
1680901635.7,286046997.4,N
1680901655.6,286046997.9,N
1680901675.4,286046994.9,Y
1680901695.2,286046998.7,P
1680901715.1,286046999.3,N
1680901716.0,286046999.3,N
1680901735.8,286047000.5,N
1680901755.6,286046999.9,N
1680901775.5,286047000.4,N
1680901795.3,286047001.7,N
1680901815.2,286047001.4,N
1680901835.9,286047003.6,N
1680901885.8,286047001.5,E
1680901895.7,286047001.3,N
1680901915.5,286046999.8,P
1680901935.4,286046998.9,N
1680901955.2,286046996.9,Y
1680901975.0,286046998.7,P
1680901975.9,286046998.7,N
1680901995.8,286046998.1,P
1680902015.6,286047000.0,N
1680902035.4,286046999.7,N
1680902055.3,286047002.6,Y
1680902075.1,286047005.5,P
1680902095.9,286047005.9,N
1680902115.7,286047005.2,N
1680902135.5,286047005.2,N
1680902155.4,286047003.2,N
1680902175.2,286047005.3,N
1680902195.0,286047005.2,N
1680902195.9,286047005.2,N
1680902215.8,286047005.4,N
1680902235.6,286047004.8,N
1680902255.5,286047005.7,Y
1680902275.3,286047000.7,P
1680902295.1,286047000.4,N
1680902315.9,286047000.7,N
1680902335.7,286047000.4,N
1680902355.5,286047000.4,N
1680902375.4,286047002.4,N
1680902395.2,286047002.1,N
1680902415.1,286047002.5,N
1680902416.0,286047002.5,N
1680902435.8,286047001.6,N
1680902455.6,286047002.6,N
1680902475.5,286047002.0,N
1680902495.3,286047000.0,N
1680902515.2,286047004.3,Y
1680902535.9,286047002.8,P
1680902555.7,286047004.4,P
1680902575.6,286046999.9,N
1680902595.4,286046999.8,N
1680902615.2,286046999.0,N
1680902635.1,286046996.6,N
1680902636.0,286046996.6,N
1680902655.8,286046998.8,N
1680902675.6,286047000.9,N
1680902695.5,286047000.5,N
1680902715.3,286047000.2,N
1680902735.2,286047000.1,N
1680902755.9,286046999.7,N
1680902775.7,286046999.8,N
1680902795.6,286047000.5,N
1680902815.4,286046998.9,N
1680902835.2,286046999.4,N
1680902855.1,286046999.3,N
1680902856.0,286046999.3,N
1680902875.8,286047000.4,N
1680902895.7,286047000.0,N
1680902915.5,286047000.5,N
1680902935.3,286046998.5,N
1680902955.2,286046998.5,N
1680902975.9,286046998.7,N
1680902995.7,286046998.9,N
1680903015.6,286046998.7,N
1680903035.4,286047001.1,N
1680903055.2,286047000.9,N
1680903075.1,286047000.5,N
1680903076.0,286047000.5,N
1680903095.8,286046999.6,N
1680903115.7,286046999.0,N
1680903135.5,286046997.1,N
1680903155.3,286046997.9,N
1680903175.2,286046993.8,Y
1680903195.0,286046994.8,P
1680903195.9,286046994.8,N
1680903215.8,286046990.4,P
1680903235.6,286046988.8,Y
1680903255.4,286046994.1,P
1680903275.3,286046994.3,P
1680903295.1,286046993.5,P
1680903315.8,286046992.8,Y
1680903335.7,286046995.3,P
1680903355.5,286046995.8,P
1680903375.4,286046993.3,P
1680903395.2,286046993.6,Y
1680903415.0,286046999.3,P
1680903415.9,286046999.3,N
1680903435.8,286046999.3,N
1680903455.6,286046998.4,N
1680903475.4,286046998.9,N
1680903495.3,286046998.4,N
1680903515.1,286046998.7,N
1680903535.9,286047000.5,N
1680903555.7,286047002.8,N
1680903575.5,286047002.4,N
1680903595.4,286047004.4,N
1680903615.2,286047004.4,N
1680903635.0,286047003.5,N
1680903635.9,286047003.5,N
1680903655.8,286047003.2,N
1680903675.6,286047003.8,N
1680903695.5,286047001.7,N
1680903715.3,286047002.7,N
1680903735.1,286047000.5,N
1680903755.9,286047001.0,N
1680903775.7,286047000.5,N
1680903795.5,286047000.7,N
1680903815.4,286047000.7,N
1680903835.2,286047001.3,N
1680903855.1,286047002.5,N
1680903856.0,286047002.5,N
1680903875.8,286047003.7,N
1680903895.6,286047002.9,N
1680903915.5,286047007.2,Y
1680903935.3,286047002.9,P
1680903955.1,286047002.5,N
1680903975.9,286047000.0,N
1680903995.7,286046998.1,N
1680904015.6,286046999.3,N
1680904035.4,286046997.0,N
1680904055.2,286046998.9,N
1680904075.1,286046998.4,N
1680904076.0,286046998.4,N
1680904095.8,286047001.1,N
1680904115.6,286047000.5,N
1680904135.5,286047000.3,N
1680904155.3,286047002.1,N
1680904175.2,286047000.2,N
1680904195.9,286047000.9,N
1680904215.7,286047001.1,N
1680904235.6,286046998.8,N
1680904255.4,286046999.0,N
1680904275.2,286046999.4,N
1680904295.1,286046996.8,N
1680904296.0,286046996.8,N
1680904315.8,286046995.1,N
1680904335.7,286046996.7,N
1680904355.5,286046997.1,N
1680904375.3,286046997.7,N
1680904395.2,286046997.5,N
1680904415.0,286046996.9,N
1680904415.9,286046996.9,N
1680904435.8,286046996.5,N
1680904455.6,286046999.8,N
1680904475.4,286047004.3,N
1680904495.3,286047001.8,N
1680904515.1,286047001.2,N
1680904516.0,286047001.2,N
1680904535.8,286046999.0,N
1680904555.7,286046998.1,N
1680904575.5,286046999.0,N
1680904595.3,286046998.5,N
1680904615.2,286046999.1,N
1680904635.0,286046997.8,N
1680904635.9,286046997.8,N
1680904655.8,286046997.3,N
1680904675.6,286046996.6,N
1680904695.4,286046997.7,N
1680904715.3,286046997.5,N
1680904735.1,286046997.8,N
1680904755.9,286046997.0,N
1680904775.7,286046996.7,N
1680904795.5,286046997.2,N
